This is the latest recevied weather packets stored in our database for station/object DL9GRB-13. If no packets are shown the sender has not sent any weather packets the latest 1 day(s).
| Time | Temp. | Humidity | Pressure | Rain* | Wind** | Luminosity | Snow |
|---|---|---|---|---|---|---|---|
| 1777960508 | 9.44° C | 95% | 1010.3 hPa | 0.51 mm | 4.92 m/s, 355° | 31 W/m² | - |
| 1777960328 | 9.44° C | 95% | 1010.2 hPa | 0.51 mm | 3.13 m/s, 39° | 26 W/m² | - |
| 1777960148 | 9.44° C | 95% | 1010.4 hPa | 0.51 mm | 7.15 m/s, 348° | 21 W/m² | - |
| 1777959968 | 9.44° C | 95% | 1010.4 hPa | 0 mm | 3.13 m/s, 15° | 21 W/m² | - |
| 1777959788 | 9.44° C | 95% | 1010.5 hPa | 0 mm | 4.02 m/s, 143° | 22 W/m² | - |
| 1777959608 | 9.44° C | 95% | 1010.4 hPa | 0 mm | 2.68 m/s, 253° | 21 W/m² | - |
| 1777959428 | 9.44° C | 95% | 1010.5 hPa | 0 mm | 5.36 m/s, 5° | 20 W/m² | - |
| 1777959248 | 9.44° C | 94% | 1010.4 hPa | 0 mm | 4.47 m/s, 48° | 22 W/m² | - |
| 1777959068 | 9.44° C | 94% | 1010.3 hPa | 0 mm | 3.58 m/s, 24° | 26 W/m² | - |
| 1777958888 | 9.44° C | 94% | 1010.4 hPa | 0 mm | 2.24 m/s, 30° | 28 W/m² | - |
| 1777958708 | 9.44° C | 94% | 1010.5 hPa | 0 mm | 2.24 m/s, 125° | 24 W/m² | - |
| 1777958528 | 9.44° C | 94% | 1010.4 hPa | 0 mm | 5.36 m/s, 64° | 17 W/m² | - |
| 1777958348 | 9.44° C | 94% | 1010.4 hPa | 0 mm | 2.68 m/s, 246° | 17 W/m² | - |
| 1777958168 | 9.44° C | 94% | 1010.4 hPa | 0 mm | 4.47 m/s, 305° | 17 W/m² | - |
| 1777957988 | 9.44° C | 94% | 1010.4 hPa | 0 mm | 3.13 m/s, 67° | 15 W/m² | - |
| 1777957808 | 9.44° C | 94% | 1010.4 hPa | 0 mm | 4.47 m/s, 21° | 12 W/m² | - |
| 1777957628 | 9.44° C | 94% | 1010.3 hPa | 0 mm | 10.28 m/s, 2° | 12 W/m² | - |
| 1777957448 | 9.44° C | 94% | 1010.4 hPa | 0 mm | 2.68 m/s, 3° | 11 W/m² | - |
| 1777957268 | 9.44° C | 93% | 1010.3 hPa | 0 mm | 5.36 m/s, 131° | 11 W/m² | - |
| 1777957088 | 9.44° C | 93% | 1010.5 hPa | 0 mm | 4.92 m/s, 95° | 11 W/m² | - |
| 1777956908 | 10° C | 93% | 1010.2 hPa | 0 mm | 7.6 m/s, 18° | 12 W/m² | - |
| 1777956728 | 10° C | 93% | 1010.2 hPa | 0 mm | 4.92 m/s, 329° | 13 W/m² | - |
| 1777956548 | 10° C | 93% | 1010.3 hPa | 0 mm | 13.41 m/s, 356° | 13 W/m² | - |
| 1777956368 | 10° C | 93% | 1010.3 hPa | 0 mm | 2.68 m/s, 286° | 11 W/m² | - |
| 1777956188 | 10° C | 93% | 1010.4 hPa | 0 mm | 10.73 m/s, 30° | 9 W/m² | - |
* Rain latest hour (hover to see other rain measurements)
** Current wind speed in m/s (hover to see current wind gust speed)